Weather in Naryshkino

Russia / Oryol Oblast     52°57′56″N   35°43′31″E
temp.,
°C
wind,
m/s
gust,
m/s
humid.,
%
clouds,
%
prec.,
mm/h
press.,
hPa
HPBL,
m
11 april, sun
sun1100:00+3sw33610 0.0 102728
03:00+2wsw33660 0.0 102821
06:00+2wsw22690 0.0 102910
09:00+7wsw11540 0.0 1030191
12:00+11se11420 0.0 1030909
15:00+13ne22370 0.0 10291114
18:00+12ene34455 0.0 1029170
21:00+8ene34598 0.0 103060
12 april, mon
mon1200:00+6ene3567100 0.0 103072
03:00+4ne3972100 0.0 1030144
06:00+3ne41173100 0.0 1029223
09:00+7ene51066100 0.0 1028410
12:00+10e5670100 0.0 1026631
15:00+14e4563100 0.0 1024727
18:00+13e3573100 0.0 1023172
21:00+10ene3788100 0.0 1023100
13 april, tue
tue1300:00+10ese3588100 0.0 102276
03:00+9sse3982100 0.0 1022125
06:00+9se3784100 0.0 1022111
09:00+11se41280100 0.0 1021312
12:00+16sse71157100 0.0 10201178
15:00+15ssw4866100 0.0 1020536
18:00+13sw3681100 0.0 1020294
21:00+11sw1190100 0.0 102011
14 april, wed
wed1400:00+10ssw119099 0.0 102011
03:00+9w1190100 0.0 101910
06:00+9sw0088100 0.0 101810
09:00+9wsw0088100 0.1 101910
12:00+11wsw2283100 0.1 1019219
15:00+11nnw128333 0.3 1019194
18:00+13nnw117697 0.0 1018160
21:00+9n118820 0.0 101810
15 april, thu
thu1500:00+8n118845 0.0 101810
03:00+8n228984 0.0 101821
06:00+7nne3390100 0.0 101862
09:00+9nne2286100 0.0 101869
12:00+13ne336986 0.0 1017408
15:00+16ne3457100 0.1 10151118
18:00+13nne4677100 1.1 1014500
21:00+8nne71290100 1.6 1015568